sat.trackr.live / text

‹ back to catalog

STARLINK-32537

NORAD 61923 · 2024-207M

PAYLOAD ACTIVE UNKNOWN

§ Identity

Operator
Country
US
Launch date
2024-11-11
Launch site
AFETR
Launch vehicle
Mass (kg)
RCS (m²)

Purposes: comms

External: N2YO · Heavens-Above · Gunter

§ Orbital elements

Epoch: 2026-09-21T07:19:29.707680Z

Period
94.27 min
Inclination
42.9998°
Eccentricity
0.0001593
Mean motion
15.27586190 rev/d
Perigee alt
481.9 km
Apogee alt
484.1 km
Semi-major
6,861.2 km
B*
4.2658e-4
RAAN
260.9213°
Arg perigee
281.8155°
Mean anomaly
78.2518°
Rev number
10,459

§ Raw data

STARLINK-325371 61923U 24207M   26264.30520495  .00011497  00000+0  42658-3 0  99932 61923  42.9998 260.9213 0001593 281.8155  78.2518 15.27586190104599

JSON: /api/v1/satellites/61923 · /tle

For live sub-satellite position, see the globe view (requires WebGL).

§ Visibility from observer

Set your observer location to see the next 7 days of passes ≥ 10°. The values pass through the URL so the page stays shareable.

No JS? Fill the form by hand. The geolocation button needs JavaScript.